SCP
1 1 1 1 1 1 1 1 1 1 1 1 1 1 1 1 1 2 2 1 1 1 1 1 1 1 1 1 0 0 1 2 3 3 3 2 2 2 2 2 2 1 1
1 1 1 1 1 1 1 1 1 1 1 1 1 1 1 1 1 1 1 1 1 1 1 1 1 1 1 1 0 0 1 1 2 2 2 2 2 2 2 2 2 1 1
1 1 1 1 1 1 1 1 1 1 1 1 1 1 1 1 1 1 1 1 1 1 1 1 1 1 1 1 1 0 0 1 1 1 1 1 1 1 1 1 1 2 2
1 1 1 1 1 1 1 1 1 1 1 1 1 1 1 1 1 1 1 1 1 1 1 1 1 1 1 1 1 0 0 1 1 1 1 1 1 1 1 1 1 2 2
1 1 1 1 1 1 1 1 1 1 1 1 1 1 1 1 1 1 0 1 1 1 1 1 1 1 1 1 1 1 1 0 1 1 1 1 1 1 2 2 2 2 2
1 1 1 1 1 1 1 1 1 1 1 1 1 1 1 1 1 1 1 1 1 1 1 1 1 1 1 1 1 0 0 0 0 1 1 1 1 2 2 2 2 2 2
1 1 1 1 1 1 1 1 1 1 1 1 1 0 1 1 1 1 1 1 1 1 1 1 1 1 1 1 0 0 0 0 0 0 0 0 1 1 2 2 2 2 2
1 1 1 1 1 1 1 1 1 1 1 1 1 1 1 1 1 1 2 1 1 1 1 1 1 1 1 1 1 1 1 0 0 0 0 0 1 1 1 1 1 2 2
0 1 1 1 1 1 1 2 2 1 1 1 1 1 1 1 1 1 2 2 1 1 1 1 1 1 1 1 1 1 1 1 0 0 0 0 1 1 1 1 1 1 1
0 0 0 1 1 1 1 2 2 1 1 1 1 1 1 1 1 1 1 1 1 1 1 1 1 1 1 1 1 1 1 1 0 0 0 0 1 1 1 1 1 1 1
0 0 0 0 1 1 1 1 1 1 1 1 1 1 1 1 1 1 1 1 1 1 1 1 1 1 1 1 1 1 1 0 0 0 0 1 1 1 1 1 1 1 1
1 1 0 0 0 0 0 1 1 0 0 0 1 1 1 1 1 1 1 1 1 1 1 1 1 1 1 1 1 1 0 0 0 0 1 1 1 2 1 1 1 1 1
1 1 1 0 0 0 0 0 0 0 0 0 0 0 1 1 1 1 1 1 1 1 1 1 1 1 1 1 1 1 0 0 0 0 1 1 2 2 1 1 1 1 1
1 1 1 1 0 0 0 0 0 0 0 0 0 0 0 0 0 0 0 1 1 1 1 1 1 1 1 1 1 0 0 0 0 0 1 1 2 2 1 1 1 1 1
1 1 1 1 0 0 0 0 0 0 0 0 0 0 0 0 0 0 0 0 0 0 1 1 1 1 1 1 1 1 0 0 0 0 1 1 2 2 1 1 1 1 2
1 1 1 0 0 0 0 0 0 0 0 0 0 0 0 0 0 0 0 0 0 0 1 1 1 1 1 1 1 1 1 0 0 0 0 1 1 1 1 1 1 1 1
1 1 1 0 0 0 0 1 0 0 0 0 0 1 1 0 0 0 0 0 0 0 0 0 0 1 1 1 1 1 1 1 0 0 0 0 1 1 1 1 1 1 1
1 1 1 1 1 0 1 1 1 1 1 1 1 1 1 1 0 0 0 0 0 0 0 0 0 1 1 1 1 1 1 1 1 1 0 0 0 1 1 1 1 1 1
1 1 1 1 1 1 1 1 1 1 1 1 1 1 1 1 0 0 0 0 0 0 0 0 0 1 1 1 1 1 1 1 1 1 1 1 0 0 0 1 1 1 1
1 1 1 1 1 1 1 1 1 0 0 0 1 1 1 1 1 1 0 0 0 0 1 1 1 0 1 1 1 1 1 1 1 1 1 1 1 0 0 0 1 1 1
1 1 1 1 1 1 1 1 1 1 1 1 1 1 1 1 1 1 1 1 1 1 1 1 1 0 0 0 1 1 1 1 1 1 1 1 1 1 1 0 0 1 1
1 1 1 1 1 1 1 1 1 1 1 1 1 1 1 1 1 1 1 1 1 1 1 1 1 0 0 0 0 0 0 0 1 1 1 1 1 1 1 1 1 1 1
1 1 1 1 1 1 1 1 1 1 1 1 1 1 1 1 1 1 1 1 1 1 1 1 1 1 0 0 0 0 0 0 0 0 1 1 1 1 1 1 1 1 1
1 1 1 1 1 1 1 1 1 1 1 1 1 1 1 2 1 1 1 1 1 1 1 1 1 1 1 0 0 0 0 0 0 0 0 0 1 1 1 1 1 1 1
2 2 2 2 2 1 1 1 1 1 1 1 1 1 2 2 1 1 1 1 2 2 1 1 1 1 0 0 0 0 0 0 0 0 0 1 1 1 1 1 1 1 1
2 3 3 3 2 1 1 1 1 1 1 1 1 2 2 2 2 1 1 1 2 2 1 1 1 1 0 0 0 0 1 1 1 0 0 1 1 1 0 0 1 1 1
Wind_Speed
3 4 11 13 13 14 14 14 13 14 14 15 15 15 15 15 15 14 14 13 12 12 12 12 11 11 10 9 9 9 9 9 9 10 10 10 10 10 10 11 10 7 11
7 6 12 13 14 14 14 14 14 13 14 14 14 14 14 14 14 14 13 13 12 12 12 11 11 10 9 8 8 8 7 7 8 9 8 8 8 8 9 10 10 7 11
8 7 9 12 13 13 13 14 14 13 14 14 14 14 14 13 13 13 13 12 12 11 11 11 10 9 9 8 7 6 6 7 7 7 6 3 4 7 8 9 11 10 10
8 6 9 13 13 13 13 13 13 13 13 13 13 13 13 13 12 12 12 11 11 10 10 9 9 8 7 7 6 5 5 6 5 6 3 3 3 7 8 9 10 10 10
7 6 9 14 13 13 13 13 13 13 13 13 12 12 12 12 12 11 11 10 9 9 9 8 7 7 6 6 5 4 4 4 4 4 3 3 3 7 9 9 10 10 10
8 6 9 14 13 13 13 13 13 13 12 12 12 11 11 11 10 10 9 8 8 8 7 6 6 6 5 5 5 4 4 4 4 3 2 2 3 7 8 9 9 9 10
7 6 8 13 13 13 13 12 12 12 12 12 11 10 9 9 9 9 8 7 7 6 6 5 5 5 5 4 3 3 3 4 3 2 2 2 3 7 7 8 9 9 9
8 6 7 12 13 13 12 12 12 12 11 11 10 10 9 8 8 7 7 6 6 5 5 4 4 4 4 3 2 3 3 3 4 3 2 1 4 6 7 7 8 9 9
7 7 5 6 8 11 11 11 11 11 10 10 10 9 8 7 7 6 6 5 5 5 4 4 3 3 3 2 2 3 3 3 2 1 2 1 4 6 6 7 7 8 8
6 6 5 5 4 4 6 10 11 10 10 9 9 9 8 7 6 5 5 4 4 3 3 3 3 3 2 1 1 3 4 4 2 1 1 2 6 7 7 7 7 7 7
7 5 5 5 4 4 4 7 8 9 8 7 6 8 6 2 2 2 4 4 3 3 2 2 2 2 1 1 1 3 4 2 2 1 1 4 6 7 7 7 7 7 6
7 6 5 6 5 5 5 4 2 3 3 2 2 3 2 2 1 2 3 4 3 3 2 2 2 1 0 0 1 2 2 2 1 1 1 5 6 7 7 7 7 7 6
7 7 6 6 5 4 3 3 2 1 1 2 2 3 2 2 1 1 1 1 1 1 1 1 0 0 0 0 0 1 2 2 1 1 2 4 5 7 7 7 7 6 6
6 6 6 6 5 4 3 3 3 2 2 2 2 3 3 2 2 1 1 1 1 0 0 0 0 0 0 1 1 2 2 2 1 1 2 5 5 6 6 7 6 5 5
6 6 6 5 5 4 3 3 3 3 3 3 2 3 3 3 2 2 1 1 1 1 1 1 0 0 0 0 1 3 3 3 3 2 1 5 5 5 6 6 6 5 5
6 6 5 5 5 5 3 3 2 2 2 2 2 3 4 3 3 2 2 1 1 1 1 1 1 1 0 0 1 2 2 3 3 3 2 3 5 5 6 6 6 5 5
6 6 6 6 5 5 4 3 3 2 2 2 2 3 3 3 3 2 2 1 1 1 1 1 1 1 1 1 1 1 2 2 3 3 3 2 2 4 6 6 5 5 5
6 6 6 7 6 4 3 3 2 2 2 2 2 2 3 3 3 2 2 1 1 1 1 2 1 1 1 0 0 0 1 1 2 3 2 2 2 2 4 6 5 5 5
7 7 6 5 6 5 4 3 2 2 2 2 2 2 2 3 3 3 2 1 1 1 1 1 1 1 1 0 0 0 0 1 1 2 3 3 2 2 2 4 5 5 6
7 6 6 5 5 5 3 2 2 2 1 1 2 2 2 2 3 3 2 1 1 1 1 1 1 1 1 1 0 1 1 0 1 1 2 2 2 3 3 3 2 4 6
7 6 6 5 4 4 3 2 2 2 1 1 1 2 3 2 3 3 2 1 1 1 1 2 1 1 0 1 2 2 3 2 1 1 1 2 2 3 3 3 2 2 2
8 7 6 6 5 4 3 2 2 2 1 1 1 1 2 3 3 3 3 2 2 2 1 1 2 1 0 1 2 1 2 4 3 1 0 1 2 1 2 3 2 2 2
9 8 8 6 6 5 4 2 2 2 1 1 0 1 1 2 2 2 3 3 2 2 2 2 2 2 1 0 1 3 2 2 2 3 2 1 1 1 1 2 3 3 3
9 8 7 6 5 4 4 3 4 3 2 2 2 1 1 2 2 3 3 3 3 2 2 2 2 2 2 1 1 1 2 3 2 1 3 2 1 1 2 2 2 3 4
9 8 7 6 5 5 4 5 4 3 2 1 1 1 1 1 1 2 3 3 3 2 2 2 2 1 2 2 1 1 0 0 1 2 2 3 2 2 1 2 2 2 3
8 7 7 7 6 5 5 5 5 4 3 3 2 2 1 1 1 1 2 2 2 2 2 2 2 2 2 1 1 1 1 1 1 2 2 2 2 2 2 1 1 2 2
Wind_Direction
144 148 129 120 116 113 110 107 103 103 104 105 107 108 111 114 115 115 115 117 119 121 121 122 120 115 116 118 122 120 119 122 126 127 130 133 134 135 135 135 130 129 132
148 147 130 123 119 115 113 113 110 108 107 108 109 110 111 113 115 116 117 117 117 118 118 116 117 116 116 118 121 124 125 123 124 126 130 134 138 139 141 142 139 139 138
137 140 132 125 121 118 117 117 115 112 111 112 112 112 112 112 114 115 116 116 116 117 117 116 117 119 120 121 121 125 127 126 127 130 135 136 141 143 144 146 144 143 142
137 135 133 130 126 122 120 118 118 117 116 115 115 115 115 115 115 115 117 116 116 117 119 121 122 123 124 123 120 119 123 128 134 144 152 155 157 151 152 151 149 149 146
133 135 138 134 131 127 124 121 121 121 120 119 116 117 119 119 119 118 118 118 118 119 120 123 125 126 123 117 111 107 116 118 129 129 136 144 157 160 159 159 158 157 155
134 140 143 137 133 130 127 125 125 124 124 123 121 120 121 122 121 121 121 122 121 121 122 123 126 125 117 115 116 108 113 119 115 97 116 141 157 162 163 166 163 163 164
134 140 144 139 138 134 131 129 129 129 127 125 124 122 121 122 123 124 125 125 125 126 126 124 126 125 121 118 114 104 109 120 115 107 123 147 165 161 161 167 169 167 167
141 141 141 144 142 140 138 136 134 133 133 132 130 128 126 124 126 129 128 130 133 134 129 128 133 136 133 129 117 107 113 124 121 109 122 167 176 166 161 160 164 169 171
141 139 141 145 145 145 145 144 143 142 142 142 141 139 137 136 134 136 138 144 141 137 132 137 138 134 131 126 108 105 104 113 99 117 135 147 167 167 160 154 155 157 165
141 144 144 140 139 144 148 153 153 152 151 153 153 151 149 146 145 146 151 161 156 151 152 156 151 143 137 128 115 107 103 105 88 98 122 149 157 159 154 150 150 151 155
146 152 151 146 150 154 157 160 159 158 160 160 160 161 152 136 142 159 180 179 181 180 178 180 179 178 185 180 144 110 97 103 99 93 138 152 156 156 152 151 153 154 157
151 161 162 160 166 170 167 148 152 159 159 157 151 152 141 142 165 190 209 207 214 218 224 223 227 224 217 63 62 91 98 113 112 125 150 155 157 157 158 158 158 158 159
150 154 160 162 165 161 146 147 154 153 158 166 165 162 152 145 156 169 177 229 246 234 274 273 276 315 162 164 105 108 122 124 137 145 152 159 159 163 163 164 166 167 169
138 146 151 151 147 147 144 149 153 152 165 177 180 166 153 149 155 164 178 206 229 260 283 284 258 268 218 169 155 137 137 146 144 149 169 167 167 170 170 166 168 170 175
139 143 148 145 144 142 139 156 152 157 162 168 166 169 163 156 161 171 195 205 226 216 191 198 176 112 21 42 160 154 158 156 161 165 167 169 168 168 169 169 170 173 179
148 149 149 145 147 145 149 147 153 161 156 159 162 172 166 164 168 171 181 202 220 201 189 180 169 147 174 115 118 149 158 163 166 159 167 178 176 172 175 180 182 181 182
152 149 151 151 142 142 144 145 148 155 146 156 162 166 163 164 167 167 170 189 202 180 160 127 112 100 107 99 106 150 157 166 172 174 175 186 191 190 188 186 187 189 192
147 147 158 152 143 144 141 141 143 149 144 157 155 154 163 165 161 154 156 186 188 147 139 145 132 102 60 54 4 281 149 169 178 177 180 190 192 195 193 189 192 197 202
150 150 153 143 148 151 146 142 144 147 147 157 152 155 164 154 155 150 163 183 156 124 129 145 121 137 145 326 250 253 224 189 187 185 192 199 201 198 201 197 199 207 210
153 151 148 144 151 147 137 123 115 124 146 161 172 179 166 160 155 151 166 168 135 118 106 117 130 131 171 195 300 6 335 260 182 181 197 201 206 203 204 209 209 221 215
153 152 156 152 157 148 140 145 146 163 174 178 191 188 175 169 161 154 159 142 133 139 160 145 145 132 323 103 72 13 352 350 313 225 201 190 203 213 202 201 204 214 226
162 162 162 164 163 163 163 166 165 162 178 186 197 187 181 166 163 161 153 147 144 137 117 126 130 122 278 116 123 90 6 348 339 313 253 202 210 206 206 203 199 204 226
170 171 171 173 171 171 166 142 120 86 57 47 92 196 194 168 164 149 151 150 153 149 162 167 151 144 169 287 141 140 142 234 301 322 315 280 231 195 207 192 193 202 207
180 173 166 168 168 170 162 155 158 161 174 205 200 196 209 182 163 160 156 153 152 151 158 178 155 151 146 186 291 206 177 170 165 302 321 314 299 220 214 210 197 199 205
175 172 168 166 169 167 164 167 164 170 182 187 176 171 185 202 183 171 162 155 156 156 162 168 149 148 163 173 203 232 113 108 144 155 276 313 329 305 247 227 209 206 204
169 171 171 170 178 176 171 170 167 172 170 160 171 180 194 204 222 200 174 168 166 166 169 180 174 163 171 175 189 179 166 171 195 161 203 265 284 291 284 262 223 213 206